Tracking 29494 objects as of 7-Sep-2024
HD Live streaming from Space Station
objects crossing your sky now

STARLINK-3124

Track STARLINK-3124 now!
10-day predictions
STARLINK-3124 is classified as:


NORAD ID: 49456
Int'l Code: 2021-104BA
Perigee: 545.9 km
Apogee: 547.8 km
Inclination: 53.2 °
Period: 95.4 minutes
Semi major axis: 6917 km
RCS: Unknown
Launch date: November 13, 2021
Source: United States (US)
Launch site: AIR FORCE EASTERN TEST RANGE (AFETR)
Your satellite tracking list
Your tracking list is empty




NASA's NSSDC Master Catalog

Two Line Element Set (TLE):
1 49456U 21104BA  24251.47050002  .00000166  00000-0  28550-4 0  9995
2 49456  53.2167 160.2178 0001388  94.8494 265.2657 15.08839272157086
Source of the keplerian elements: AFSPC